Find Starlink 37124

NORAD ID: 68283 Int'l Des: 2026-055 Owner: SPXS Country: US Constellation: starlink operational
LEOCIRCULAR

Live Position

Loading 3D Globe...

About Starlink 37124

Description loading...

Upcoming Passes

Passes for default location (London). Set your location on the main map for personalized predictions.

Altitude History

Loading altitude history...

Two-Line Element Set

1 68283U 26055X 26124.58335648 .00016990 00000-0 58462-3 0 9995
2 68283 53.1600 60.2432 0001973 98.5718 133.0550 15.30189303 6038
Epoch: May 4, 2026 • Age: 5 hours

Current Status

Altitude 494.2 km
Velocity 7.62 km/s
Sub-Earth Point -50.85°S, 153.64°W
Launch Date Mar 19, 2026
Age 0.1 years
Type internet

Technical Details

Classification Payload
Mass 575.00 kg
Dry Mass 530.00 kg
Total Mass 575.00 kg
Length 0.30 m
Diameter 4.10 m
Span 29.00 m
Shape Box + pan
Manufacturer SPXS
Bus Type Starlink V2MO
Phase Status In Orbit
Owner/State SPXS/US

Most Searched